Location: Buffign�court
(47.8126°N, 6.0176°E)
Time: 18:05:50
(UTC+00:00)

Cosmos 1340 - Pass Details

Date: 16 June 2021
Orbit: 498 x 504 km, 81.2° (Epoch: 30 July)

Event Time Altitude Azimuth Distance (km) Brightness Sun altitude
Exits shadow 22:26:12 13° 229° (SW) 1,549 4.9 -17.1°
Maximum altitude 22:29:06 30° 289° (WNW) 921 4.3 -17.2°
Drops below altitude 10° 22:32:29 10° 352° (N) 1,728 6.6 -17.4°
Sets 22:34:49 0° 3° (N) 2,618 7.7 -17.5°
